This demonstration page uses our WeatherBlox Daily Observations layout. Learn more.

Left ArrowRight Arrow

30.21309, -93.2044

Hourly Observations for July 7, 2021

Temp ( °F °C ) Dew Point ( °F °C ) Humidity (%) Winds ( mph kmh ) Pressure ( in mb ) Visibility ( mi km ) Precip ( " mm )
12:15 am 00:15 Partly Cloudy 77 25.1 74 23.5 91 91 SSE 3 6 29.96 1015 10 16 0.00 0.00
12:35 am 00:35 Clear 77 25.2 74 23.5 90 90 SSE 3 6 29.96 1015 10 16 0.00 0.00
12:55 am 00:55 Partly Cloudy 78 25.4 74 23.6 90 90 Calm 29.96 1015 10 16 0.00 0.00
1:15 am 01:15 Mostly Cloudy 79 26.1 72 22.3 80 80 WSW 14 22 29.97 1015 10 16 0.00 0.00
1:35 am 01:35 Cloudy with Rain 75 23.7 71 21.8 89 89 W 13 20 29.97 1015 10 16 0.07 1.78
1:55 am 01:55 Mostly Cloudy with Light Rain 74 23.4 71 21.7 90 90 NNW 7 11 29.96 1015 10 16 0.09 2.29
2:15 am 02:15 Cloudy with Light Rain 74 23.2 71 21.7 91 91 N 5 7 29.96 1015 10 16 0.02 0.51
2:35 am 02:35 Cloudy with Light Rain 74 23.2 71 21.9 92 92 Calm 29.95 1014 10 16 0.03 0.76
2:55 am 02:55 Cloudy with Light Rain 74 23.2 72 22.1 94 94 N 5 7 29.95 1014 10 16 0.04 1.02
3:15 am 03:15 Cloudy 74 23.4 72 22.2 93 93 NE 5 7 29.94 1014 10 16 0.00 0.00
3:35 am 03:35 Cloudy 74 23.5 72 22 91 91 Calm 29.94 1014 10 16 0.00 0.00
3:55 am 03:55 Cloudy with Light Rain 75 23.9 72 22 89 89 NW 7 11 29.94 1014 7 11 0.09 2.29
4:15 am 04:15 Cloudy with Heavy Rain 75 24.1 73 23 94 94 E 3 6 29.94 1014 1 2 0.65 16.51
4:35 am 04:35 Cloudy with Heavy Rain 75 24 73 22.5 91 91 SE 5 7 29.93 1014 1 2 1.21 30.73
4:55 am 04:55 Cloudy with Rain 75 23.8 73 22.7 94 94 NE 5 7 29.93 1014 4 6 1.49 37.85
5:15 am 05:15 Cloudy with Light Rain 75 23.7 73 22.7 94 94 ENE 6 9 29.93 1014 10 16 0.02 0.51
5:35 am 05:35 Cloudy with Light Rain 74 23.3 72 22.1 93 93 E 6 9 29.93 1014 10 16 0.02 0.51
6:00 am 06:00 Mostly Cloudy 73 23 72 22 94 94 Calm 29.94 1014 10 16 0.00 0.00
6:50 am 06:50 Mostly Cloudy 75 24 72 22 89 89 Calm 29.94 1014 10 16 0.00 0.00
7:51 am 07:51 Mostly Cloudy 75 24 73 23 94 94 Calm 29.95 1014 10 16 0.00 0.00
8:55 am 08:55 Mostly Cloudy 79 26 75 24 89 89 Calm 29.98 1015 10 16 0.00 0.00
9:53 am 09:53 Mostly Cloudy 81 27 73 23 79 79 SE 13 20 29.99 1016 10 16 0.00 0.00
10:30 am 10:30 Mostly Cloudy with Light Rain 75 24 70 21 83 83 SSW 18 30 30.01 1016 10 16 0.00 0.00
10:55 am 10:55 Mostly Cloudy with Light Rain 75 24 70 21 83 83 SSW 18 30 30.01 1016 10 16 0.00 0.00
11:36 am 11:36 Mostly Cloudy 73 23 70 21 89 89 Calm 30.01 1016 10 16 0.00 0.00
11:46 am 11:46 Mostly Cloudy 73 23 68 20 83 83 Calm 30.01 1016 10 16 0.00 0.00
12:51 pm 12:51 Mostly Cloudy 73 23 72 22 94 94 WSW 8 13 29.99 1016 10 16 0.00 0.00
1:50 pm 13:50 Mostly Cloudy 81 27 73 23 79 79 ENE 3 6 29.93 1014 10 16 0.00 0.00
2:50 pm 14:50 Partly Cloudy 82 28 72 22 70 70 S 3 6 29.92 1013 10 16 0.00 0.00
3:50 pm 15:50 Partly Cloudy 84 29 66 19 55 55 SW 5 7 29.92 1013 10 16 0.00 0.00
4:50 pm 16:50 Mostly Cloudy 84 29 70 21 62 62 S 8 13 29.91 1013 10 16 0.00 0.00
5:50 pm 17:50 Mostly Cloudy 84 29 66 19 55 55 SSW 6 9 29.91 1013 10 16 0.00 0.00
6:50 pm 18:50 Mostly Cloudy 82 28 70 21 66 66 S 6 9 29.93 1014 10 16 0.00 0.00
7:50 pm 19:50 Mostly Cloudy 81 27 72 22 74 74 S 5 7 29.93 1014 10 16 0.00 0.00
8:50 pm 20:50 Cloudy 82 28 72 22 70 70 SW 3 6 29.94 1014 10 16 0.00 0.00
9:50 pm 21:50 Mostly Clear 79 26 73 23 84 84 Calm 29.94 1014 10 16 0.00 0.00
10:15 pm 22:15 Clear 79 26.1 74 23.1 84 84 Calm 29.94 1014 10 16 0.00 0.00
10:35 pm 22:35 Clear 79 26.2 74 23.1 83 83 Calm 29.94 1014 10 16 0.00 0.00
10:55 pm 22:55 Clear 78 25.7 74 23.5 88 88 SSE 3 6 29.94 1014 10 16 0.00 0.00
11:15 pm 23:15 Clear 78 25.5 73 22.8 85 85 SSE 5 7 29.94 1014 10 16 0.00 0.00
11:35 pm 23:35 Clear 78 25.4 72 22.3 83 83 SE 3 6 29.94 1014 10 16 0.00 0.00
11:55 pm 23:55 Clear 78 25.8 72 22.3 81 81 S 3 6 29.94 1014 10 16 0.00 0.00

Powered by AerisWeather